Regional Weather Roundup
Issued by NWS

Home | Current Version | Previous Version | Graphics & Text | Print | Product List | Glossary On
Versions: 1 2 3 4 5 6 7 8 9 10 11 12 13 14 15 16 17 18 19 20 21 22 23 24 25 26 27 28 29 30 31 32 33 34 35 36 37 38 39 40 41 42 43 44 45 46 47 48 49 50
000
ASUS43 KTOP 301308
RWRKS

WEATHER ROUNDUP FOR KANSAS
NATIONAL WEATHER SERVICE GOODLAND KS
800 AM CDT THU MAR 30 2017

NOTE:  "FAIR" INDICATES FEW OR NO CLOUDS BELOW 12,000 FEET WITH NO
SIGNIFICANT WEATHER AND/OR OBSTRUCTIONS TO VISIBILITY.

KSZ001>006-013>018-027>032-041>047-301400-
NORTHWEST KANSAS

CITY           SKY/WX    TMP DP  RH WIND       PRES   REMARKS
GOODLAND       FOG       34  34 100 N12       29.82R VSB 1/4 WCI  25
HAYS             N/A     39  35  86 N17       29.78R WCI  30
HILL CITY      CLOUDY    38  37  97 N14       29.81R FOG     WCI  30
RUSSELL        CLOUDY    39  36  89 NW17G24   29.74R WCI  30
$$

KSZ061>065-074>080-084>089-301400-
SOUTHWEST KANSAS

CITY           SKY/WX    TMP DP  RH WIND       PRES   REMARKS
DODGE CITY     CLOUDY    39  36  89 N21G30    29.79R WCI  29
ELKHART          N/A     37  29  73 W7          N/A
GARDEN CITY    CLOUDY    38  35  89 NW20      29.82R WCI  28
GREAT BEND     CLOUDY    39  36  89 NW23      29.75  WCI  28
LIBERAL        CLEAR     37  34  87 N10       29.83R WCI  30
PRATT          CLOUDY    37  34  87 NW22G32   29.74R WCI  27
$$

KSZ066>073-081>083-090>101-301400-
SOUTHEAST KANSAS

CITY           SKY/WX    TMP DP  RH WIND       PRES   REMARKS
CHANUTE        CLOUDY    45  43  93 SW9       29.57S FOG
COFFEYVILLE    CLOUDY    46  44  93 SW12      29.62S
HUTCHINSON     CLOUDY    39  37  93 NW22G30   29.67R WCI  29
MEDICINE LODGE   N/A     42  37  82 NW17G30   29.73R
NEWTON         CLOUDY    40  39  97 NW24G33   29.62R WCI  29
PARSONS        CLOUDY    45  43  93 SW10      29.60S
WICHITA INTL   CLOUDY    42  41  96 NW21G32   29.65R
WICHITA JABRA  CLOUDY    41  39  93 NW23G32   29.63R
WICHITA MCCONL CLOUDY    42  38  87 N20G30    29.63S
WINFIELD       CLOUDY    43  40  89 NW16      29.67R
$$

KSZ007>012-019>026-033>040-048>060-102>105-301400-
NORTHEAST KANSAS

CITY           SKY/WX    TMP DP  RH WIND       PRES   REMARKS
CONCORDIA      LGT RAIN  39  38  96 N17       29.70R WCI  30
EMPORIA        LGT RAIN  46  46 100 NW17G25   29.54R FOG
LAWRENCE       CLOUDY    48  48 100 E3        29.56S
MANHATTAN      LGT RAIN  43  41  93 N12G23    29.62R
MARYSVILLE     LGT RAIN  41  39  93 N15G22    29.65R
OLATHE IND     CLOUDY    46  45  96 SE5       29.56S FOG
OLATHE EXE     CLOUDY    45  45 100 S3        29.56S FOG
SALINA         CLOUDY    42  39  89 N24G30    29.68R
TOPEKA BILLARD PTCLDY    49  48  97 NE5       29.56R
TOPEKA FORBES  LGT RAIN  49  47  93 N5        29.55S FOG
$$




USA.gov is the U.S. government's official web portal to all federal, state and local government web resources and services.